[[{"header":{"parameterUnit":"m.s-1","parameterCategory":2,"la1":30.2991,"la2":30.254,"lo1":-89.0895,"lo2":-89.0444,"dy":0.0017,"dx":0.0017,"nx":28,"ny":28,"refTime":"2026-02-02T03:00:00:Z","depth":"0","parameterNumber":2,"parameterNumberName":"U-component_of_CURRENTS"},"data":[0,0,0,0,0,0,0,0,0,0,0,0,0,0,0,0,0,0,0,0,0,0,0,0,0,0,0,0,0,0,0,0,0,0,0,0,0,0,0,0,0,0,0,0,0,0,0,0,0,0,0,0,0,0,0,0,0,0,0.3076,0.3076,0,0.3087,0.3087,0.3087,0.3162,0.3164,0.3166,0.3167,0.3193,0.3192,0.3191,0,0,0,0,0,0,0,0,0,0,0,0,0,0.3097,0.3096,0.3076,0.3076,0.3077,0.3087,0.3087,0.3087,0.3161,0.3164,0.3166,0.3168,0.3193,0.3192,0.3191,0,0,0,0,0,0,0,0,0,0,0,0,0,0.3094,0.3096,0.3076,0.3116,0.312,0.3087,0.3087,0.3087,0.3161,0.3164,0.3167,0.3169,0.3194,0.3192,0.319,0.312,0,0,0.3185,0.3184,0,0,0,0,0,0,0,0,0.3094,0.3093,0.311,0.3113,0.3118,0.3128,0.3104,0.31,0.316,0.3143,0.3168,0.3171,0.3171,0.3172,0.3164,0.3122,0.3123,0.3185,0.3184,0.3183,0.3183,0,0,0,0,0,0,0,0.3094,0.3093,0.3079,0.311,0.3115,0.3126,0.3129,0.3103,0.3139,0.3145,0.3151,0.3154,0.3174,0.3166,0.3166,0.3123,0.3185,0.3183,0.3182,0.3182,0.3202,0.3203,0,0,0,0,0,0,0.3094,0.3093,0.3078,0.3079,0.3115,0.3124,0.3127,0.312,0.314,0.3146,0.3152,0.3158,0.3167,0.3168,0.3167,0.3245,0.3183,0.3182,0.3181,0.32,0.3202,0.3204,0,0,0,0,0,0,0.3094,0.3092,0.3078,0.3089,0.3088,0.3121,0.3112,0.3119,0.3129,0.3145,0.3152,0.3158,0.317,0.3169,0.318,0.3241,0.3181,0.3179,0.3198,0.3201,0.3203,0.3299,0,0,0,0,0,0,0.3094,0.3092,0.3078,0.3088,0.3088,0.3075,0.311,0.3117,0.3127,0.3135,0.3152,0.3157,0.3172,0.3183,0.3179,0.3237,0.3178,0.3196,0.3199,0.3202,0.3293,0.3304,0.3313,0,0,0,0,0,0.3095,0.3056,0.3076,0.3075,0.307,0.3075,0.3076,0.3108,0.3124,0.3128,0.3154,0.3157,0.3201,0.3181,0.3176,0.3236,0.3195,0.3198,0.3202,0.3289,0.3302,0.3313,0,0,0,0,0,0,0.3035,0.3061,0.3083,0.3049,0.3074,0.3089,0.308,0.3102,0.3119,0.3129,0.315,0.3155,0.3196,0.3184,0.3163,0.3252,0.3207,0.321,0.3276,0.3288,0.3297,0.3353,0.3176,0,0,0,0,0,0.3019,0.3013,0.3043,0.3016,0.3028,0.3054,0.3056,0.3083,0.3102,0.3112,0.3131,0.3159,0.3198,0.3217,0.3228,0.3248,0.33,0.3291,0.3301,0.3309,0.3351,0.3483,0.351,0.3215,0.3215,0.3215,0,0,0.2986,0.2999,0.2993,0.3006,0.3022,0.3077,0.3063,0.3068,0.3126,0.3107,0.3167,0.3174,0.3205,0.3259,0.3278,0.3264,0.3415,0.3313,0.3321,0.3359,0.349,0.352,0.3546,0.3218,0.3217,0.3217,0,0,0.2968,0.2933,0.2964,0.2989,0.3027,0.3055,0.3063,0.3092,0.3116,0.3152,0.3186,0.3237,0.3249,0.3326,0.3359,0.3417,0.3453,0.341,0.3518,0.3645,0.3672,0.3696,0.3785,0.3817,0.3428,0.3428,0.3428,0,0.2946,0.2989,0.2967,0.3023,0.3061,0.3061,0.3133,0.3146,0.3181,0.3223,0.3188,0.3307,0.3305,0.3454,0.3482,0.3448,0.3509,0.3472,0.3663,0.3688,0.3711,0.3798,0.3831,0.3433,0.3432,0.3432,0.3431,0,0.3,0.3033,0.3039,0.3139,0.3159,0.3196,0.3239,0.3265,0.3282,0.3328,0.3427,0.3438,0.3538,0.3535,0.3523,0.3701,0.3685,0.3652,0.3642,0.3748,0.383,0.3864,0.344,0.3438,0.3437,0.3436,0,0,0.3022,0.3076,0.3099,0.3157,0.3229,0.3254,0.3334,0.3433,0.3519,0.3537,0.3682,0.3725,0.3742,0.3782,0.3786,0.3881,0.4064,0.3841,0.3845,0.3946,0.4341,0.4235,0.4261,0.4072,0.4079,0.4084,0.4327,0,0.3115,0.3225,0.3237,0.3358,0.3428,0.344,0.352,0.3591,0.3644,0.3764,0.3811,0.392,0.3837,0.3896,0.3987,0.4044,0.416,0.4001,0.421,0.4217,0.4125,0.43,0.4026,0.4212,0.436,0.4366,0.437,0,0.3242,0.3294,0.3411,0.3492,0.3523,0.358,0.3716,0.3784,0.3929,0.3974,0.4102,0.414,0.4297,0.4194,0.4401,0.4306,0.4351,0.4377,0.4387,0.4289,0.4176,0.4132,0.4268,0.4124,0.4421,0.4417,0.4413,0,0.3335,0.3437,0.3524,0.3554,0.3638,0.3681,0.3734,0.3857,0.3942,0.4129,0.4235,0.4398,0.4488,0.4595,0.4613,0.4545,0.4824,0.4738,0.4701,0.4692,0.4503,0.4466,0.4541,0.4934,0.4933,0.4933,0.4932,0,0.347,0.3554,0.3557,0.3607,0.3719,0.3737,0.3874,0.3955,0.4105,0.4242,0.435,0.4489,0.4593,0.4731,0.4747,0.4831,0.4945,0.4784,0.4781,0.452,0.4484,0.438,0.4321,0.4942,0.494,0.4938,0.4937,0,0.3618,0.3607,0.3706,0.3751,0.3766,0.3847,0.3938,0.4036,0.4163,0.4361,0.4434,0.4616,0.4764,0.4858,0.5023,0.4985,0.4935,0.5077,0.4741,0.4693,0.4477,0.4432,0.4455,0.4343,0.5106,0.5106,0.5105,0,0.373,0.3783,0.3811,0.3837,0.3858,0.3941,0.3996,0.408,0.4171,0.4411,0.4512,0.4717,0.4817,0.5023,0.499,0.5065,0.4927,0.4874,0.4694,0.4494,0.4444,0.4304,0.4198,0.448,0.4474,0.4469,0.4466,0,0.395,0.392,0.3972,0.3993,0.4018,0.4054,0.4115,0.4176,0.4277,0.4399,0.4522,0.4619,0.4792,0.4711,0.4816,0.4816,0.461,0.4781,0.4682,0.4079,0.383,0.3706,0.4274,0.4425,0.4429,0.4432,0.4434,0.4436,0.4106,0.4151,0.4134,0.4147,0.4158,0.4102,0.4063,0.4102,0.415,0.4184,0.4373,0.4363,0.4416,0.4481,0.4487,0.4289,0.4346,0.412,0.4124,0.4036,0.3796,0.4266,0.4331,0.4334,0.4337,0.434,0.4342,0,0.4238,0.4228,0.4278,0.4199,0.4139,0.412,0.4087,0.396,0.3879,0.3942,0.3944,0.3888,0.3834,0.3879,0.3782,0.3643,0.3495,0.3544,0.3272,0.3235,0.3745,0.3577,0.3347,0.3347,0.3347,0.3347,0.3348,0.3348,0.4304,0.4309,0.4265,0.4135,0.4065,0.3849,0.3749,0.3592,0.3533,0.3324,0.3218,0.326,0.3443,0.3454,0.3284,0.3186,0.2959,0.2792,0.2896,0.3204,0.3256,0.3305,0.3134,0.2814,0.2814,0.2185,0.2181,0.2177]},{"header":{"parameterUnit":"m.s-1","parameterCategory":2,"la1":30.2991,"la2":30.254,"lo1":-89.0895,"lo2":-89.0444,"dy":0.0017,"dx":0.0017,"nx":28,"ny":28,"refTime":"2026-02-02T03:00:00:Z","depth":"0","parameterNumber":3,"parameterNumberName":"V-component_of_CURRENTS"},"data":[0,0,0,0,0,0,0,0,0,0,0,0,0,0,0,0,0,0,0,0,0,0,0,0,0,0,0,0,0,0,0,0,0,0,0,0,0,0,0,0,0,0,0,0,0,0,0,0,0,0,0,0,0,0,0,0,0,0,-0.0017,-0.0017,0,-0.0091,-0.0092,-0.0093,-0.0178,-0.0179,-0.018,-0.0181,-0.0289,-0.0291,-0.0293,0,0,0,0,0,0,0,0,0,0,0,0,0,-0.0012,-0.0011,-0.0017,-0.0017,-0.0018,-0.0091,-0.0092,-0.0094,-0.0178,-0.0179,-0.018,-0.0181,-0.0289,-0.0291,-0.0293,0,0,0,0,0,0,0,0,0,0,0,0,0,-0.0046,-0.0011,-0.0016,-0.0066,-0.0071,-0.009,-0.0092,-0.0094,-0.0178,-0.0179,-0.0181,-0.0182,-0.0288,-0.0291,-0.0294,-0.0285,0,0,-0.0303,-0.0304,0,0,0,0,0,0,0,0,-0.0044,-0.0047,-0.0058,-0.0063,-0.0068,-0.0123,-0.013,-0.0158,-0.0177,-0.0141,-0.0181,-0.0182,-0.0233,-0.0241,-0.0257,-0.029,-0.0294,-0.0303,-0.0305,-0.0306,-0.0307,0,0,0,0,0,0,0,-0.0041,-0.0044,-0.005,-0.0058,-0.0065,-0.0106,-0.0112,-0.0136,-0.0182,-0.0144,-0.015,-0.0152,-0.0237,-0.0254,-0.026,-0.0296,-0.0303,-0.0306,-0.0308,-0.0309,-0.0339,-0.0338,0,0,0,0,0,0,-0.0019,-0.0041,-0.0047,-0.0052,-0.0055,-0.0104,-0.0112,-0.0107,-0.0181,-0.0193,-0.015,-0.0155,-0.0248,-0.0256,-0.0264,-0.0248,-0.0306,-0.0309,-0.0311,-0.034,-0.0339,-0.0338,0,0,0,0,0,0,-0.0019,-0.0019,-0.0044,-0.0046,-0.0052,-0.0102,-0.0097,-0.0108,-0.0122,-0.0185,-0.0198,-0.0153,-0.0249,-0.026,-0.0282,-0.0254,-0.0311,-0.0313,-0.0341,-0.034,-0.0339,-0.0223,0,0,0,0,0,0,-0.0018,-0.0018,-0.0008,-0.0044,-0.005,-0.0041,-0.0096,-0.0108,-0.0119,-0.0127,-0.0191,-0.0203,-0.0251,-0.0277,-0.0285,-0.0259,-0.0316,-0.0343,-0.0341,-0.0339,-0.0228,-0.0217,-0.0209,0,0,0,0,0,-0.0018,0.0014,-0.0007,-0.0007,-0.0034,-0.0039,-0.0046,-0.0091,-0.0118,-0.0111,-0.0161,-0.0201,-0.027,-0.0278,-0.0288,-0.0262,-0.0344,-0.0341,-0.0339,-0.0232,-0.0219,-0.0209,0,0,0,0,0,0,0.0031,0.0008,-0.0016,0.0009,-0.001,-0.0052,-0.0048,-0.0077,-0.0111,-0.0121,-0.0187,-0.0202,-0.0214,-0.0251,-0.0257,-0.0266,-0.0313,-0.0313,-0.0228,-0.0217,-0.0208,-0.0175,-0.0318,0,0,0,0,0,0.0047,0.0056,0.0029,0.0047,0.0042,-0.0002,-0.001,-0.0037,-0.007,-0.0087,-0.0132,-0.0178,-0.0211,-0.0223,-0.0262,-0.0258,-0.0274,-0.0249,-0.0239,-0.0231,-0.0211,-0.0203,-0.019,-0.033,-0.0331,-0.0331,0,0,0.0069,0.006,0.0063,0.0057,0.0035,0.0048,-0.0011,-0.001,-0.0001,-0.0091,-0.0095,-0.0148,-0.0205,-0.0211,-0.0218,-0.0236,-0.02,-0.0228,-0.022,-0.0205,-0.0199,-0.0185,-0.0173,-0.0329,-0.0329,-0.0329,0,0,0.0126,0.0113,0.0137,0.013,0.0114,0.0091,0.0099,0.0064,0.0045,0.0036,-0.0028,-0.0056,-0.0106,-0.0136,-0.0159,-0.0113,-0.0155,-0.0131,-0.0047,-0.0039,-0.0027,-0.0016,-0.0017,-0.0007,-0.0118,-0.0118,-0.0118,0,0.015,0.0183,0.0145,0.017,0.018,0.012,0.0158,0.0134,0.0096,0.0099,0.005,-0.0003,-0.0066,-0.0052,-0.0056,-0.0088,-0.0095,-0.0085,-0.0023,-0.0014,-0.0005,-0.0008,0.0001,-0.0112,-0.0113,-0.0114,-0.0114,0,0.022,0.0247,0.0267,0.0275,0.0281,0.0305,0.0275,0.0271,0.0237,0.0216,0.0214,0.0134,0.0109,0.0078,0.0014,0.0052,0.0022,-0.0016,-0.0046,0.0017,0.0008,0.0016,-0.0104,-0.0106,-0.0108,-0.0109,0,0,0.0268,0.0309,0.0313,0.0348,0.0343,0.0363,0.038,0.0394,0.043,0.037,0.0427,0.0331,0.0292,0.0263,0.0194,0.0184,0.0213,0.0113,0.011,0.0125,0.0233,0.0188,0.0191,0.0189,0.0191,0.0193,0.0203,0,0.0333,0.0416,0.0414,0.0495,0.0539,0.0508,0.054,0.054,0.0528,0.0563,0.0492,0.0509,0.0365,0.037,0.0332,0.025,0.0239,0.0214,0.0159,0.0157,0.012,0.02,0.0156,0.016,0.021,0.0211,0.0212,0,0.0399,0.0451,0.0545,0.0626,0.0643,0.0677,0.0736,0.0762,0.0779,0.0777,0.077,0.0721,0.0694,0.0574,0.0472,0.0465,0.0358,0.0284,0.0282,0.0208,0.0127,0.0102,0.0171,-0.0015,0.0223,0.0222,0.0221,0,0.0457,0.0548,0.0634,0.0656,0.0725,0.0763,0.0799,0.0826,0.0889,0.0935,0.1002,0.0934,0.0936,0.0803,0.0598,0.0555,0.0495,0.0422,0.0286,0.0281,0.0217,0.0203,0.0111,0.0371,0.0371,0.0371,0.0371,0,0.0529,0.0597,0.067,0.0714,0.0826,0.0849,0.097,0.0986,0.1077,0.1201,0.1126,0.1212,0.0993,0.0915,0.0707,0.0524,0.0577,0.0328,0.0294,0.0254,0.0244,0.0055,-0.0052,0.0371,0.0371,0.0371,0.0371,0,0.0563,0.0615,0.0716,0.081,0.0853,0.0926,0.1078,0.1178,0.1247,0.1417,0.1456,0.1438,0.1346,0.1113,0.0909,0.0684,0.0391,0.042,0.0379,0.034,0.0033,-0.0065,-0.0195,-0.0265,0.0301,0.0301,0.03,0,0.0584,0.0639,0.077,0.0846,0.089,0.102,0.1127,0.1237,0.1373,0.1563,0.1669,0.1646,0.1641,0.132,0.0931,0.0603,0.0396,0.0336,0.0235,0.0039,-0.0095,-0.018,-0.0235,0.0194,0.0192,0.0191,0.019,0,0.0609,0.0649,0.0727,0.0893,0.1017,0.1183,0.1355,0.1493,0.1667,0.1825,0.2003,0.2024,0.1729,0.1368,0.0899,0.0651,0.0196,0.03,0.0116,-0.0159,-0.0274,-0.0364,0.0154,0.0179,0.018,0.0181,0.0181,0.0182,0.0611,0.0666,0.0785,0.095,0.1105,0.1331,0.1479,0.1696,0.1935,0.2171,0.2193,0.2227,0.172,0.1082,0.0748,0.0102,0.0125,-0.0122,-0.0214,-0.0272,-0.0373,0.012,0.0089,0.009,0.009,0.0091,0.0091,0,0.0631,0.0715,0.0853,0.1054,0.1236,0.1329,0.1627,0.1794,0.2078,0.225,0.2373,0.21,0.1503,0.091,0.0051,-0.0366,-0.0506,-0.0578,-0.0716,-0.0738,-0.0282,-0.0323,-0.0468,-0.0468,-0.0467,-0.0467,-0.0467,-0.0467,0.0653,0.0775,0.0866,0.1144,0.129,0.1545,0.1719,0.196,0.2131,0.2294,0.2269,0.2219,0.1725,0.0286,-0.0662,-0.0843,-0.1093,-0.1178,-0.1257,-0.098,-0.0945,-0.0911,-0.0975,-0.1253,-0.1254,-0.1685,-0.169,-0.1694]}],[{"header":{"parameterUnit":"m.s-1","parameterCategory":2,"la1":30.2991,"la2":30.254,"lo1":-89.0895,"lo2":-89.0444,"dy":0.0017,"dx":0.0017,"nx":28,"ny":28,"refTime":"2026-02-02T03:00:00:Z","depth":"2","parameterNumber":2,"parameterNumberName":"U-component_of_CURRENTS"},"data":[0,0,0,0,0,0,0,0,0,0,0,0,0,0,0,0,0,0,0,0,0,0,0,0,0,0,0,0,0,0,0,0,0,0,0,0,0,0,0,0,0,0,0,0,0,0,0,0,0,0,0,0,0,0,0,0,0,0,0.2475,0.2476,0,0.2535,0.2535,0.2536,0.2577,0.2578,0.2578,0.2579,0.2625,0.2626,0.2627,0,0,0,0,0,0,0,0,0,0,0,0,0,0.2401,0.2402,0.2475,0.2476,0.2477,0.2535,0.2535,0.2536,0.2577,0.2578,0.2579,0.2579,0.2625,0.2626,0.2627,0,0,0,0,0,0,0,0,0,0,0,0,0,0.2442,0.2402,0.2475,0.2507,0.251,0.2535,0.2535,0.2536,0.2577,0.2578,0.2579,0.258,0.2625,0.2626,0.2627,0.2616,0,0,0.263,0.263,0,0,0,0,0,0,0,0,0.2439,0.2444,0.2501,0.2505,0.2509,0.2552,0.2527,0.2563,0.2577,0.2549,0.2579,0.258,0.2601,0.2604,0.2609,0.2618,0.262,0.263,0.2631,0.2631,0.2631,0,0,0,0,0,0,0,0.2436,0.2442,0.2496,0.2502,0.2507,0.252,0.2526,0.2533,0.2567,0.2551,0.2555,0.2566,0.2602,0.2608,0.2611,0.2621,0.263,0.2631,0.2632,0.2632,0.271,0.2711,0,0,0,0,0,0,0.2434,0.2439,0.2494,0.2498,0.2479,0.2521,0.2528,0.2535,0.2567,0.2574,0.2565,0.2568,0.2606,0.2609,0.2612,0.2686,0.2631,0.2632,0.2633,0.2709,0.271,0.2712,0,0,0,0,0,0,0.2432,0.2438,0.2492,0.2472,0.248,0.2521,0.2529,0.2536,0.2557,0.2578,0.2584,0.2582,0.2607,0.2611,0.2639,0.2685,0.2633,0.2633,0.2707,0.2709,0.2711,0.2779,0,0,0,0,0,0,0.2429,0.2436,0.2443,0.2472,0.2482,0.2517,0.2529,0.2536,0.2563,0.2567,0.2594,0.2599,0.2608,0.2638,0.264,0.2685,0.2634,0.2705,0.2708,0.271,0.2774,0.2783,0.279,0,0,0,0,0,0.2426,0.2428,0.2443,0.245,0.2489,0.2518,0.2524,0.2554,0.2563,0.2575,0.2598,0.2599,0.2657,0.2639,0.2642,0.2689,0.2704,0.2707,0.271,0.2771,0.2781,0.279,0,0,0,0,0,0,0.2394,0.2433,0.2451,0.2463,0.2496,0.2526,0.254,0.2558,0.2584,0.2591,0.2607,0.2613,0.2659,0.2657,0.2636,0.2719,0.2685,0.2689,0.273,0.2739,0.2747,0.2772,0.2635,0,0,0,0,0,0.2391,0.2407,0.2447,0.2458,0.2475,0.2509,0.2526,0.2548,0.2574,0.2587,0.2608,0.2635,0.2671,0.269,0.271,0.2745,0.2781,0.278,0.2787,0.2794,0.2816,0.2914,0.2933,0.2723,0.2723,0.2723,0,0,0.2381,0.2406,0.2415,0.2453,0.2479,0.2521,0.2521,0.255,0.2593,0.2586,0.2642,0.2657,0.2684,0.2735,0.2756,0.2742,0.287,0.2798,0.2804,0.2823,0.292,0.294,0.2959,0.2725,0.2724,0.2724,0,0,0.2381,0.2393,0.2418,0.2452,0.2499,0.2523,0.2536,0.2577,0.2605,0.265,0.267,0.2715,0.2748,0.2795,0.282,0.2878,0.2904,0.2881,0.2947,0.3042,0.3061,0.3078,0.3142,0.3164,0.289,0.289,0.289,0,0.2376,0.2414,0.2428,0.2471,0.2509,0.253,0.2578,0.2608,0.2655,0.2695,0.2676,0.2781,0.2788,0.2892,0.2912,0.2901,0.2947,0.291,0.3055,0.3072,0.3089,0.3151,0.3175,0.2893,0.2893,0.2893,0.2892,0,0.2409,0.2447,0.2462,0.2531,0.2564,0.2604,0.2654,0.2691,0.272,0.2764,0.2855,0.2876,0.2952,0.2957,0.295,0.3077,0.3069,0.305,0.3035,0.3114,0.3174,0.3197,0.2899,0.2897,0.2896,0.2895,0,0,0.2408,0.2474,0.249,0.2534,0.2605,0.2637,0.2707,0.279,0.2869,0.2902,0.3018,0.3059,0.3084,0.3114,0.3124,0.3193,0.3329,0.3173,0.3176,0.3244,0.3533,0.3405,0.3418,0.3343,0.3348,0.3352,0.3526,0,0.2448,0.2528,0.2554,0.264,0.2694,0.2736,0.2808,0.2882,0.2949,0.3061,0.3108,0.3209,0.3144,0.3201,0.326,0.3319,0.3396,0.3283,0.3441,0.3445,0.3328,0.3443,0.3149,0.3269,0.3549,0.3553,0.3556,0,0.2506,0.255,0.2637,0.2722,0.275,0.2805,0.2937,0.3003,0.3148,0.3209,0.3311,0.336,0.3474,0.3408,0.3555,0.3489,0.3525,0.3551,0.3559,0.3436,0.3362,0.3237,0.3302,0.3595,0.3592,0.3589,0.3586,0,0.253,0.2619,0.2687,0.2721,0.2817,0.287,0.2927,0.306,0.3154,0.3327,0.3429,0.3546,0.3639,0.37,0.3717,0.3671,0.387,0.3817,0.374,0.373,0.3509,0.3471,0.395,0.395,0.395,0.3949,0.3949,0,0.258,0.2636,0.2708,0.2748,0.2839,0.2905,0.3038,0.3111,0.3287,0.3404,0.3514,0.3624,0.3722,0.3821,0.3814,0.3842,0.3953,0.3787,0.3785,0.3519,0.3482,0.3777,0.3755,0.3956,0.3954,0.3953,0.3952,0,0.2595,0.265,0.2729,0.2824,0.2854,0.2925,0.3071,0.3186,0.3337,0.3505,0.3572,0.3751,0.3846,0.3913,0.4029,0.3968,0.4005,0.3987,0.3647,0.36,0.3782,0.3761,0.3949,0.3946,0.3944,0.3942,0.3941,0,0.2613,0.2637,0.2752,0.2821,0.2865,0.2975,0.3061,0.3196,0.3311,0.3536,0.3615,0.3792,0.384,0.3968,0.3917,0.3925,0.3989,0.3663,0.3512,0.3812,0.3792,0.3774,0.3757,0.3252,0.3245,0.3239,0.3235,0,0.2622,0.266,0.2732,0.2883,0.2978,0.3009,0.3124,0.32,0.3353,0.3469,0.3585,0.3647,0.3766,0.3622,0.365,0.3606,0.3629,0.3543,0.4005,0.3274,0.3163,0.3139,0.3144,0.3183,0.3188,0.3192,0.3195,0.3197,0.2648,0.268,0.2829,0.292,0.3016,0.3009,0.2996,0.3098,0.3168,0.3241,0.34,0.337,0.341,0.3275,0.3181,0.3125,0.3358,0.321,0.3226,0.3248,0.3112,0.3001,0.2965,0.2969,0.2972,0.2975,0.2978,0,0.268,0.2716,0.2857,0.2924,0.2961,0.3024,0.302,0.2945,0.29,0.3001,0.3033,0.2794,0.2705,0.2747,0.2574,0.2577,0.2541,0.2482,0.2401,0.2455,0.2503,0.2325,0.1972,0.1969,0.1966,0.1963,0,0,0.2717,0.2808,0.2829,0.2851,0.2883,0.278,0.2717,0.2596,0.2586,0.2487,0.2447,0.262,0.2687,0.2294,0.2247,0.2075,0.2252,0.2008,0.2822,0.2783,0.2826,0.294,0.273,0,0,0,0,0]},{"header":{"parameterUnit":"m.s-1","parameterCategory":2,"la1":30.2991,"la2":30.254,"lo1":-89.0895,"lo2":-89.0444,"dy":0.0017,"dx":0.0017,"nx":28,"ny":28,"refTime":"2026-02-02T03:00:00:Z","depth":"2","parameterNumber":3,"parameterNumberName":"V-component_of_CURRENTS"},"data":[0,0,0,0,0,0,0,0,0,0,0,0,0,0,0,0,0,0,0,0,0,0,0,0,0,0,0,0,0,0,0,0,0,0,0,0,0,0,0,0,0,0,0,0,0,0,0,0,0,0,0,0,0,0,0,0,0,0,0.0141,0.0141,0,0.0057,0.0056,0.0055,-0.0005,-0.0005,-0.0005,-0.0005,-0.0109,-0.0111,-0.0114,0,0,0,0,0,0,0,0,0,0,0,0,0,0.0195,0.0194,0.0141,0.014,0.014,0.0057,0.0056,0.0054,-0.0005,-0.0005,-0.0005,-0.0006,-0.0108,-0.0111,-0.0114,0,0,0,0,0,0,0,0,0,0,0,0,0,0.0145,0.0194,0.0141,0.0103,0.0098,0.0058,0.0056,0.0054,-0.0005,-0.0005,-0.0005,-0.0006,-0.0107,-0.0111,-0.0115,-0.0133,0,0,-0.0126,-0.0128,0,0,0,0,0,0,0,0,0.0148,0.0142,0.0109,0.0105,0.0101,0.0039,0.0037,-0.0008,-0.0005,0.0031,-0.0006,-0.0006,-0.0059,-0.0067,-0.0086,-0.0138,-0.0142,-0.0127,-0.0129,-0.0131,-0.0132,0,0,0,0,0,0,0,0.0151,0.0145,0.0105,0.0108,0.0103,0.007,0.0063,0.0028,-0.0014,0.0028,0.0024,0.002,-0.0062,-0.0082,-0.0089,-0.0144,-0.0127,-0.013,-0.0133,-0.0134,-0.0195,-0.0194,0,0,0,0,0,0,0.0171,0.0149,0.0107,0.0102,0.0127,0.007,0.0062,0.0056,-0.0014,-0.0023,0.002,0.0017,-0.0076,-0.0085,-0.0093,-0.0088,-0.0131,-0.0134,-0.0137,-0.0195,-0.0194,-0.0194,0,0,0,0,0,0,0.0172,0.0168,0.0111,0.0126,0.0117,0.007,0.0064,0.0055,0.0039,-0.0019,-0.003,0.0014,-0.0076,-0.0087,-0.0115,-0.0094,-0.0136,-0.014,-0.0196,-0.0195,-0.0194,-0.0098,0,0,0,0,0,0,0.0174,0.0169,0.017,0.0128,0.0117,0.01,0.0065,0.0054,0.0038,0.0033,-0.0027,-0.0038,-0.0077,-0.0109,-0.0119,-0.01,-0.0143,-0.0197,-0.0196,-0.0194,-0.0102,-0.0094,-0.0087,0,0,0,0,0,0.0177,0.0185,0.017,0.0165,0.012,0.0101,0.0092,0.0055,0.0038,0.0038,-0.0003,-0.0035,-0.0107,-0.0111,-0.0123,-0.0105,-0.0198,-0.0196,-0.0195,-0.0106,-0.0096,-0.0087,0,0,0,0,0,0,0.0204,0.0178,0.0162,0.0159,0.0138,0.0092,0.0088,0.0064,0.0029,0.0025,-0.0031,-0.0044,-0.0062,-0.0097,-0.01,-0.0119,-0.0156,-0.0157,-0.0084,-0.0075,-0.0068,-0.0042,-0.0146,0,0,0,0,0,0.0213,0.0213,0.0182,0.018,0.0173,0.0132,0.0118,0.0097,0.0063,0.0047,0.0007,-0.0034,-0.0065,-0.008,-0.0117,-0.0127,-0.0159,-0.0122,-0.0114,-0.0108,-0.0095,-0.0122,-0.0115,-0.0188,-0.0188,-0.0188,0,0,0.0222,0.0209,0.0207,0.0186,0.0164,0.0171,0.0122,0.0112,0.0118,0.0042,0.0035,-0.0013,-0.0064,-0.0076,-0.0086,-0.0101,-0.0104,-0.0105,-0.0099,-0.009,-0.012,-0.0112,-0.0106,-0.0187,-0.0188,-0.0188,0,0,0.0254,0.0231,0.0248,0.0239,0.0221,0.0199,0.0203,0.0166,0.0149,0.0135,0.0084,0.0055,0.0004,-0.0023,-0.0044,-0.0016,-0.0067,-0.0029,0.0036,0.001,0.0016,0.0021,-0.001,-0.0009,-0.0019,-0.0019,-0.0019,0,0.0266,0.0286,0.0249,0.0269,0.0274,0.0221,0.0249,0.0225,0.0184,0.0181,0.0148,0.0085,0.0034,0.003,0.0035,0.0004,-0.0023,0.0007,0.0021,0.0025,0.0029,-0.0004,-0.0004,-0.0014,-0.0015,-0.0015,-0.0016,0,0.0317,0.0334,0.0345,0.0356,0.0353,0.0367,0.0339,0.0329,0.03,0.0277,0.0259,0.0189,0.0156,0.0134,0.0088,0.0094,0.0062,0.0031,0.0002,0.0042,0.0004,0.0003,-0.0007,-0.0009,-0.001,-0.0012,0,0,0.034,0.0376,0.038,0.0412,0.0405,0.0413,0.0422,0.0423,0.0445,0.0387,0.0411,0.0337,0.0295,0.0268,0.0209,0.0182,0.017,0.0123,0.0119,0.0101,0.0109,0.0056,0.0049,0.0141,0.0141,0.0141,0.0073,0,0.0394,0.0466,0.0461,0.0526,0.0564,0.053,0.0551,0.0541,0.0521,0.0527,0.0453,0.0448,0.0349,0.0343,0.0295,0.0202,0.0171,0.0191,0.0066,0.0062,0.0017,0.0047,0.0077,0.0016,0.0072,0.0071,0.0071,0,0.0449,0.0494,0.0575,0.0634,0.0645,0.0671,0.0703,0.0718,0.0702,0.0691,0.066,0.0599,0.0545,0.0463,0.0323,0.0339,0.0235,0.0158,0.0153,0.0071,0.0007,-0.0016,0.0011,0.0068,0.0068,0.0069,0.0069,0,0.0502,0.0574,0.0648,0.0666,0.0716,0.0743,0.0764,0.0768,0.0817,0.0806,0.0841,0.074,0.0718,0.0569,0.0376,0.0357,0.0224,0.0178,0.0035,0.0029,0.0014,0.0007,0.0095,0.0096,0.0096,0.0096,0.0096,0,0.0568,0.0627,0.0682,0.0723,0.0815,0.0818,0.0915,0.0913,0.0963,0.1039,0.0937,0.0965,0.0746,0.063,0.0435,0.0226,0.0262,0.0055,0.0013,0.0046,0.0043,0.0053,0.0049,0.0093,0.0094,0.0094,0.0095,0,0.0624,0.0657,0.075,0.0819,0.0846,0.0914,0.103,0.1112,0.1129,0.1228,0.1238,0.1152,0.0984,0.0748,0.051,0.0323,0.0118,0.0037,0.0084,0.0048,-0.0073,-0.0071,-0.012,-0.0122,-0.0124,-0.0126,-0.0127,0,0.0673,0.0726,0.0822,0.0893,0.0933,0.1041,0.113,0.1189,0.1296,0.1337,0.1402,0.1275,0.1178,0.0802,0.0462,0.0126,0.0093,-0.0052,-0.009,-0.0057,-0.0092,-0.0087,-0.0083,-0.0072,-0.0073,-0.0074,-0.0074,0,0.0777,0.0798,0.0874,0.1004,0.1111,0.1241,0.1371,0.1478,0.1551,0.1609,0.1634,0.1549,0.119,0.0835,0.0384,0.0164,-0.0005,-0.0078,-0.0038,-0.0029,-0.0019,-0.0052,-0.0048,-0.008,-0.008,-0.0079,-0.0079,-0.0079,0.0858,0.0926,0.1018,0.1136,0.1264,0.1417,0.1525,0.1659,0.179,0.1853,0.1782,0.1644,0.1271,0.0666,0.0297,-0.0068,-0.0059,-0.0185,-0.018,-0.0174,-0.0163,-0.0158,-0.0243,-0.0243,-0.0244,-0.0244,-0.0244,0,0.0965,0.1033,0.1153,0.1288,0.1424,0.147,0.1673,0.1759,0.1883,0.1919,0.189,0.1507,0.1119,0.0705,0.015,-0.0188,-0.0189,-0.028,-0.0208,-0.02,-0.0193,-0.018,-0.0267,-0.0268,-0.0269,-0.0269,0,0,0.1032,0.1152,0.1191,0.1398,0.1493,0.1653,0.176,0.185,0.1911,0.1909,0.1831,0.1704,0.1206,0.0805,0.0353,0.004,0.0004,-0.0014,0.0039,0.0186,0.0197,-0.0109,-0.0077,0,0,0,0,0]}],[{"header":{"parameterUnit":"m.s-1","parameterCategory":2,"la1":30.2991,"la2":30.254,"lo1":-89.0895,"lo2":-89.0444,"dy":0.0017,"dx":0.0017,"nx":28,"ny":28,"refTime":"2026-02-02T03:00:00:Z","depth":"4","parameterNumber":2,"parameterNumberName":"U-component_of_CURRENTS"},"data":[0,0,0,0,0,0,0,0,0,0,0,0,0,0,0,0,0,0,0,0,0,0,0,0,0,0,0,0,0,0,0,0,0,0,0,0,0,0,0,0,0,0,0,0,0,0,0,0,0,0,0,0,0,0,0,0,0,0,0.1558,0.156,0,0.1655,0.1656,0.1657,0.1729,0.173,0.1731,0.1731,0.1837,0.1839,0.1841,0,0,0,0,0,0,0,0,0,0,0,0,0,0.144,0.1442,0.1558,0.156,0.1561,0.1655,0.1656,0.1658,0.1729,0.173,0.1731,0.1732,0.1836,0.1839,0.1841,0,0,0,0,0,0,0,0,0,0,0,0,0,0.1509,0.1443,0.1558,0.1609,0.1615,0.1655,0.1656,0.1658,0.1729,0.173,0.1731,0.1732,0.1835,0.1838,0.1841,0.1839,0,0,0.1851,0.1852,0,0,0,0,0,0,0,0,0.1505,0.1513,0.16,0.1605,0.1612,0.1682,0.1654,0.1719,0.1728,0.1684,0.1731,0.1733,0.1786,0.1793,0.1807,0.1844,0.1848,0.1851,0.1853,0.1855,0.1856,0,0,0,0,0,0,0,0.15,0.1509,0.1595,0.1601,0.1609,0.1629,0.164,0.1666,0.1727,0.1688,0.1694,0.1706,0.1789,0.1804,0.181,0.185,0.1851,0.1854,0.1856,0.1857,0.1992,0.1994,0,0,0,0,0,0,0.1489,0.1504,0.1592,0.1598,0.1561,0.163,0.1642,0.1658,0.1726,0.1738,0.1705,0.1709,0.1798,0.1806,0.1814,0.1913,0.1855,0.1858,0.1859,0.1991,0.1993,0.1995,0,0,0,0,0,0,0.1486,0.1496,0.1588,0.1554,0.1568,0.1631,0.1648,0.1659,0.1711,0.174,0.1752,0.175,0.1799,0.181,0.1869,0.1914,0.1859,0.1862,0.1989,0.1991,0.1994,0.2049,0,0,0,0,0,0,0.1482,0.1494,0.1519,0.1554,0.157,0.1635,0.1647,0.166,0.1715,0.1722,0.1781,0.179,0.1801,0.1865,0.1873,0.1918,0.1864,0.1987,0.199,0.1993,0.2045,0.2053,0.206,0,0,0,0,0,0.1478,0.1502,0.1519,0.1531,0.1595,0.1636,0.1647,0.1693,0.1716,0.1744,0.1785,0.179,0.1891,0.1869,0.1877,0.1924,0.1985,0.1989,0.1993,0.2041,0.2051,0.206,0,0,0,0,0,0,0.1469,0.1513,0.1532,0.1571,0.1611,0.1649,0.1686,0.1712,0.1766,0.1786,0.1809,0.1821,0.1893,0.1897,0.1872,0.1972,0.194,0.1946,0.1974,0.1983,0.1991,0.1988,0.1867,0,0,0,0,0,0.1475,0.1507,0.1546,0.1583,0.1606,0.1652,0.1682,0.1713,0.1756,0.1784,0.1823,0.1866,0.1908,0.1937,0.1971,0.2022,0.2031,0.2059,0.2066,0.2073,0.2077,0.2136,0.2149,0.2007,0.2007,0.2007,0,0,0.1482,0.1512,0.1532,0.1584,0.1622,0.1658,0.1674,0.173,0.1771,0.1785,0.1864,0.1897,0.1928,0.199,0.2022,0.2005,0.2117,0.2078,0.2083,0.2084,0.2141,0.2155,0.2167,0.201,0.2009,0.2009,0,0,0.1498,0.1541,0.1568,0.1602,0.1662,0.1691,0.1713,0.1771,0.1814,0.1879,0.1905,0.1963,0.2026,0.2057,0.2078,0.2145,0.2155,0.2166,0.2204,0.2262,0.2274,0.2284,0.2306,0.2318,0.2169,0.2169,0.2169,0,0.1507,0.1542,0.1583,0.1616,0.1652,0.1707,0.1744,0.1791,0.1864,0.1903,0.1915,0.2032,0.2056,0.2131,0.2156,0.2164,0.2189,0.2167,0.2271,0.2282,0.2292,0.2312,0.2325,0.2172,0.2172,0.2171,0.2171,0,0.1528,0.157,0.1593,0.1651,0.1696,0.1741,0.1802,0.1863,0.1921,0.1963,0.2065,0.2107,0.2176,0.2196,0.2197,0.2287,0.2279,0.2275,0.2247,0.231,0.2326,0.2339,0.2177,0.2175,0.2174,0.2174,0,0,0.15,0.159,0.1598,0.1637,0.172,0.1758,0.1838,0.1917,0.1983,0.206,0.2146,0.2217,0.2255,0.2281,0.2306,0.235,0.2435,0.2349,0.235,0.2366,0.2552,0.2375,0.2372,0.2461,0.2464,0.2466,0.2531,0,0.1504,0.1562,0.1612,0.1685,0.1722,0.1804,0.1873,0.1958,0.2039,0.2136,0.2203,0.2298,0.2285,0.2344,0.2386,0.2438,0.2472,0.2416,0.2491,0.2492,0.2326,0.2382,0.2475,0.254,0.2543,0.2545,0.2546,0,0.1489,0.1538,0.1601,0.1709,0.1736,0.1797,0.1928,0.2001,0.2135,0.2206,0.2307,0.2371,0.2471,0.2449,0.2555,0.2529,0.2543,0.2562,0.2565,0.2388,0.2339,0.2467,0.2568,0.2567,0.2565,0.2564,0.2562,0,0.1428,0.1526,0.158,0.1615,0.1742,0.1807,0.1892,0.2024,0.2108,0.2271,0.2359,0.2467,0.256,0.2605,0.2646,0.2625,0.2743,0.2715,0.256,0.2547,0.2662,0.265,0.2775,0.2775,0.2775,0.2774,0.2774,0,0.139,0.1439,0.1565,0.1597,0.1682,0.1791,0.1906,0.2006,0.2167,0.2267,0.2403,0.2492,0.2612,0.269,0.2691,0.2661,0.2783,0.257,0.2558,0.2681,0.2671,0.267,0.2657,0.2777,0.2776,0.2776,0.2775,0,0.1305,0.1388,0.146,0.1603,0.1653,0.1721,0.1908,0.1988,0.2162,0.2306,0.2374,0.2554,0.2648,0.2724,0.2804,0.271,0.2703,0.2657,0.2783,0.2776,0.2454,0.2443,0.2483,0.2478,0.2473,0.2469,0.2466,0,0.126,0.1282,0.1437,0.1484,0.1557,0.1679,0.176,0.1957,0.2048,0.231,0.2363,0.2539,0.2627,0.2608,0.2678,0.2668,0.2627,0.2597,0.2511,0.2443,0.2428,0.2425,0.242,0.2458,0.2457,0.2456,0.2455,0,0.1158,0.1226,0.1289,0.1383,0.1478,0.1587,0.1728,0.1787,0.2015,0.2191,0.231,0.237,0.2465,0.2501,0.252,0.25,0.2604,0.2547,0.2555,0.2474,0.2413,0.2402,0.2403,0.2438,0.2441,0.2442,0.2443,0,0.1078,0.1097,0.1181,0.1277,0.1378,0.1473,0.1564,0.1688,0.181,0.2101,0.212,0.2299,0.2449,0.2413,0.2424,0.2402,0.2347,0.2247,0.227,0.2289,0.2189,0.2081,0.1998,0,0,0,0,0,0.1001,0.1033,0.1072,0.1174,0.127,0.1363,0.1532,0.1631,0.1849,0.1882,0.2007,0.2085,0.2135,0.2209,0.2141,0.2299,0.2335,0.2205,0.2227,0.2348,0.2367,0.2263,0,0,0,0,0,0,0.0954,0.0989,0.103,0.1076,0.1138,0.1247,0.1369,0.1514,0.1546,0.1761,0.18,0.1949,0.2021,0.2162,0.2105,0.2121,0.2085,0.2304,0.2298,0.2337,0.2354,0.2369,0.227,0,0,0,0,0]},{"header":{"parameterUnit":"m.s-1","parameterCategory":2,"la1":30.2991,"la2":30.254,"lo1":-89.0895,"lo2":-89.0444,"dy":0.0017,"dx":0.0017,"nx":28,"ny":28,"refTime":"2026-02-02T03:00:00:Z","depth":"4","parameterNumber":3,"parameterNumberName":"V-component_of_CURRENTS"},"data":[0,0,0,0,0,0,0,0,0,0,0,0,0,0,0,0,0,0,0,0,0,0,0,0,0,0,0,0,0,0,0,0,0,0,0,0,0,0,0,0,0,0,0,0,0,0,0,0,0,0,0,0,0,0,0,0,0,0,0.0143,0.0142,0,0.0084,0.0083,0.0082,0.0052,0.0052,0.0052,0.0052,-0.0028,-0.003,-0.0032,0,0,0,0,0,0,0,0,0,0,0,0,0,0.0188,0.0187,0.0143,0.0142,0.0142,0.0084,0.0083,0.0082,0.0052,0.0052,0.0052,0.0052,-0.0027,-0.003,-0.0032,0,0,0,0,0,0,0,0,0,0,0,0,0,0.0151,0.0187,0.0143,0.0121,0.0119,0.0084,0.0083,0.0082,0.0051,0.0052,0.0052,0.0052,-0.0026,-0.0029,-0.0033,-0.0058,0,0,-0.0043,-0.0044,0,0,0,0,0,0,0,0,0.0153,0.0149,0.0125,0.0122,0.012,0.0077,0.007,0.0035,0.0051,0.0075,0.0052,0.0052,0.0007,0.0001,-0.0014,-0.0061,-0.0065,-0.0043,-0.0045,-0.0047,-0.0048,0,0,0,0,0,0,0,0.0156,0.0151,0.0117,0.0124,0.0121,0.01,0.0095,0.0063,0.0038,0.0073,0.0071,0.0068,0.0005,-0.001,-0.0016,-0.0066,-0.0043,-0.0046,-0.0048,-0.005,-0.0113,-0.0113,0,0,0,0,0,0,0.0169,0.0154,0.0119,0.0116,0.014,0.01,0.0094,0.0089,0.0039,0.0032,0.0067,0.0066,-0.0005,-0.0012,-0.0019,-0.0022,-0.0047,-0.005,-0.0052,-0.0113,-0.0113,-0.0112,0,0,0,0,0,0,0.017,0.0166,0.0122,0.0135,0.0128,0.0099,0.0093,0.0088,0.0078,0.0036,0.0028,0.0064,-0.0005,-0.0014,-0.0039,-0.0026,-0.0051,-0.0054,-0.0114,-0.0113,-0.0113,-0.0047,0,0,0,0,0,0,0.0171,0.0167,0.0167,0.0136,0.0128,0.011,0.0093,0.0087,0.0076,0.0074,0.003,0.0023,-0.0005,-0.0034,-0.0043,-0.0031,-0.0057,-0.0114,-0.0113,-0.0113,-0.005,-0.0044,-0.004,0,0,0,0,0,0.0173,0.0173,0.0167,0.0163,0.0129,0.011,0.0104,0.0082,0.0076,0.0074,0.0046,0.0024,-0.0036,-0.0037,-0.0047,-0.0036,-0.0114,-0.0114,-0.0113,-0.0052,-0.0045,-0.004,0,0,0,0,0,0,0.0187,0.0169,0.0162,0.0155,0.0139,0.0106,0.0102,0.0087,0.0062,0.0063,0.0023,0.0013,-0.0004,-0.0031,-0.0031,-0.0052,-0.0077,-0.0078,-0.0027,-0.0021,-0.0016,-0.0003,-0.006,0,0,0,0,0,0.0192,0.0192,0.0169,0.0164,0.0159,0.0132,0.0121,0.0109,0.0084,0.0074,0.0045,0.0015,-0.001,-0.0023,-0.0053,-0.0068,-0.0105,-0.0066,-0.0061,-0.0057,-0.0053,-0.0096,-0.0094,-0.011,-0.011,-0.011,0,0,0.0196,0.0187,0.0185,0.0168,0.0153,0.0156,0.0126,0.0117,0.0121,0.0069,0.0062,0.0028,-0.0012,-0.0025,-0.0035,-0.0045,-0.0073,-0.0056,-0.0052,-0.0051,-0.0095,-0.0093,-0.0092,-0.0109,-0.011,-0.011,0,0,0.0212,0.0197,0.0207,0.02,0.0188,0.0174,0.0176,0.015,0.0139,0.0126,0.0093,0.0068,0.0029,0.0005,-0.0012,-0.0,-0.0047,-0.0007,0.003,-0.0011,-0.001,-0.0009,-0.0057,-0.0062,-0.0002,-0.0001,-0.0001,0,0.0218,0.0229,0.0206,0.0218,0.022,0.0188,0.0204,0.0187,0.0157,0.0149,0.0135,0.0079,0.0045,0.0027,0.0034,0.0012,-0.0023,0.0013,-0.0004,-0.0004,-0.0005,-0.0055,-0.006,0.0002,0.0001,0.0001,0.0001,0,0.0246,0.0257,0.0262,0.0272,0.0269,0.0275,0.0258,0.0249,0.0233,0.0213,0.0189,0.014,0.0109,0.0095,0.0068,0.0051,0.0023,0.0006,-0.0016,0.0001,-0.0053,-0.006,0.0006,0.0005,0.0004,0.0003,0,0,0.025,0.0278,0.0281,0.0303,0.0301,0.0304,0.0309,0.0301,0.0306,0.0269,0.0266,0.022,0.0189,0.0167,0.0127,0.0091,0.0053,0.0053,0.0049,0.0009,-0.0045,-0.0052,-0.0062,0.0033,0.0033,0.0032,-0.0082,0,0.028,0.0326,0.0327,0.0369,0.0392,0.0373,0.0382,0.0371,0.035,0.0336,0.0281,0.0264,0.0218,0.0208,0.0164,0.0079,0.0038,0.0085,-0.006,-0.0064,-0.0069,-0.0068,0.003,-0.0087,-0.0089,-0.009,-0.0091,0,0.0307,0.0338,0.0391,0.043,0.0436,0.0456,0.0466,0.0472,0.044,0.0424,0.039,0.0342,0.0285,0.0248,0.0113,0.0144,0.0059,-0.001,-0.0016,-0.005,-0.0084,-0.0109,-0.0105,-0.0104,-0.0103,-0.0102,-0.0101,0,0.0332,0.038,0.0429,0.0441,0.0477,0.0495,0.051,0.0499,0.0516,0.0483,0.0486,0.04,0.0365,0.0249,0.0105,0.0108,-0.0053,-0.0067,-0.0157,-0.0159,-0.0148,-0.0147,-0.0159,-0.0158,-0.0158,-0.0158,-0.0157,0,0.0364,0.0405,0.0449,0.0478,0.0538,0.0541,0.0595,0.059,0.0594,0.0619,0.0541,0.0525,0.0364,0.0252,0.0118,-0.0045,-0.0046,-0.0153,-0.0186,-0.0118,-0.0113,-0.0154,-0.0151,-0.0162,-0.0161,-0.016,-0.016,0,0.0396,0.0421,0.0485,0.0534,0.0558,0.0602,0.0674,0.071,0.0699,0.0726,0.0722,0.0615,0.0464,0.029,0.0087,-0.0019,-0.0178,-0.0235,-0.0157,-0.0184,-0.0263,-0.0256,-0.0343,-0.0344,-0.0345,-0.0346,-0.0346,0,0.0425,0.0458,0.0535,0.0581,0.0614,0.0686,0.0742,0.0767,0.0805,0.0777,0.0788,0.0655,0.0562,0.0272,0.0077,-0.0184,-0.0216,-0.0299,-0.0274,-0.0257,-0.0281,-0.0272,-0.0264,-0.0348,-0.0348,-0.0349,-0.0349,0,0.0476,0.0498,0.055,0.0638,0.071,0.0803,0.0875,0.0907,0.0925,0.092,0.085,0.0694,0.0515,0.0277,0.0071,-0.0115,-0.0245,-0.031,-0.0309,-0.0286,-0.0264,-0.0285,-0.0276,-0.0352,-0.0352,-0.0351,-0.0351,0,0.0517,0.0551,0.0606,0.069,0.0785,0.0876,0.0918,0.0954,0.0985,0.0946,0.0914,0.0717,0.06,0.031,0.0118,-0.0065,-0.0108,-0.0156,-0.0164,-0.0163,-0.0077,-0.0021,-0.0063,0,0,0,0,0,0.0552,0.0583,0.0653,0.0738,0.0837,0.09,0.0985,0.1014,0.1025,0.0995,0.0958,0.0793,0.0498,0.0357,0.0175,0.0087,-0.015,-0.0133,-0.021,-0.0371,-0.0367,-0.0298,0,0,0,0,0,0,0.0566,0.0629,0.0648,0.0766,0.0839,0.0954,0.1018,0.1033,0.1008,0.0983,0.0829,0.0754,0.0464,0.0609,0.0175,0.0115,0.0042,-0.0272,-0.0276,-0.0373,-0.037,-0.0366,-0.0294,0,0,0,0,0]}]]